Albert Lea, MN

12:15 AM CDT on July 22, 2017 (GMT -0500)
Albert Lea Municipal

Weather History for KAEL - February, 2013

Change the Weather History Date:

Saturday, February 2, 2013

  Actual Average Record
Temperature  
Mean Temperature 12 °F -  
Max Temperature 21 °F 25 °F 50 °F (2012)
Min Temperature 6 °F 10 °F -16 °F (2001)
Degree Days  
Heating Degree Days 54    
Moisture  
Dew Point 8 °F    
Average Humidity 84    
Maximum Humidity 100    
Minimum Humidity 68    
Precipitation  
Precipitation 0.00 in - - ()
Sea Level Pressure  
Sea Level Pressure 30.02 in    
Wind  
Wind Speed 5 mph (West)    
Max Wind Speed 18 mph    
Max Gust Speed 24 mph    
Visibility 9 miles    
Events Snow    
Averages and records for this station are not official NWS values.
T = Trace of Precipitation, MM = Missing Value Source: NWS Daily Summary

Daily Weather History Graph

Daily Weather History Graph

Search for Another Location

Airport or City:

Trip Planner

Search our weather history database for the weather conditions in past years. The results will help you decide how hot, cold, wet, or windy it might be!

Date:

Astronomy

Feb. 02, 2013 Rise Set
Actual Time 7:28 AM CST 5:26 PM CST
Civil Twilight 6:58 AM CST 5:56 PM CST
Nautical Twilight 6:24 AM CST 6:31 PM CST
Astronomical Twilight 5:50 AM CST 7:04 PM CST
Moon No Moon Rise 10:24 AM CST (2/2)
Length of Visible Light 10h 58m
Length of Day
9h 57m
Waning Gibbous, 59% of the Moon is Illuminated
Feb 2
Waning Gibbous
Feb 3
Last Quarter
Feb 10
New
Feb 17
First Quarter
Feb 25
Full

Hourly Weather History & Observations

Time (CST) Temp. Windchill Dew Point Humidity Pressure Visibility Wind Dir Wind Speed Gust Speed Precip Events Conditions
12:10 AM 10.4 °F 4.0 °F 8.6 °F 92% 29.97 in 10.0 mi South 3.5 mph - N/A   Overcast
12:30 AM 10.4 °F 4.0 °F 8.6 °F 92% 29.97 in 10.0 mi SSE 3.5 mph - N/A   Overcast
12:51 AM 12.2 °F - 8.6 °F 85% 29.97 in 10.0 mi Calm Calm - N/A   Overcast
1:10 AM 12.2 °F - 8.6 °F 85% 29.98 in 10.0 mi Calm Calm - N/A   Overcast
1:30 AM 12.2 °F - 8.6 °F 85% 29.98 in 10.0 mi Calm Calm - N/A   Overcast
1:51 AM 12.2 °F - 8.6 °F 85% 29.98 in 10.0 mi Calm Calm - N/A   Overcast
2:10 AM 12.2 °F - 10.4 °F 92% 29.99 in 10.0 mi Calm Calm - N/A   Overcast
2:30 AM 12.2 °F - 10.4 °F 92% 30.00 in 10.0 mi Calm Calm - N/A   Overcast
3:10 AM 12.2 °F - 10.4 °F 92% 30.00 in 10.0 mi Calm Calm - N/A   Overcast
3:30 AM 14.0 °F 1.2 °F 10.4 °F 86% 30.00 in 10.0 mi NW 10.4 mph 16.1 mph N/A Snow Light Snow
3:51 AM 12.2 °F -0.2 °F 10.4 °F 92% 30.01 in 7.0 mi NW 9.2 mph - N/A Snow Light Snow
4:10 AM 12.2 °F -0.2 °F 10.4 °F 92% 30.01 in 5.0 mi NW 9.2 mph - N/A Snow Light Snow
4:30 AM 12.2 °F -1.0 °F 10.4 °F 92% 30.02 in 7.0 mi NNW 10.4 mph 17.3 mph N/A Snow Light Snow
4:51 AM 12.2 °F -1.8 °F 8.6 °F 85% 30.03 in 7.0 mi NW 11.5 mph 18.4 mph N/A Snow Light Snow
5:10 AM 10.4 °F -5.4 °F 8.6 °F 92% 30.04 in 10.0 mi NNW 13.8 mph 18.4 mph N/A   Overcast
5:30 AM 10.4 °F -5.4 °F 6.8 °F 85% 30.05 in 10.0 mi NNW 13.8 mph 19.6 mph N/A   Overcast
6:10 AM 8.6 °F -4.7 °F 5.0 °F 85% 30.06 in 10.0 mi NNW 9.2 mph - N/A   Overcast
6:31 AM 8.6 °F -4.7 °F 5.0 °F 85% 30.07 in 10.0 mi NNW 9.2 mph - N/A   Overcast
6:50 AM 6.8 °F -6.9 °F 5.0 °F 92% 30.08 in 10.0 mi NNW 9.2 mph - N/A   Overcast
7:10 AM 6.8 °F -7.8 °F 3.2 °F 85% 30.09 in 10.0 mi NNW 10.4 mph - N/A   Overcast
7:31 AM 6.8 °F -4.8 °F 3.2 °F 85% 30.10 in 10.0 mi NNW 6.9 mph - N/A   Overcast
7:50 AM 6.8 °F -5.9 °F 3.2 °F 85% 30.10 in 10.0 mi NNW 8.1 mph - N/A   Overcast
8:10 AM 6.8 °F -6.9 °F 3.2 °F 85% 30.11 in 10.0 mi NNW 9.2 mph - N/A   Overcast
8:30 AM 6.8 °F -4.8 °F 3.2 °F 85% 30.11 in 10.0 mi NNW 6.9 mph - N/A   Overcast
8:50 AM 6.8 °F -6.9 °F 1.4 °F 79% 30.11 in 10.0 mi NNW 9.2 mph - N/A   Overcast
9:10 AM 6.8 °F -4.8 °F 1.4 °F 79% 30.12 in 10.0 mi NNW 6.9 mph - N/A   Overcast
9:30 AM 6.8 °F -2.0 °F 1.4 °F 79% 30.11 in 10.0 mi NNW 4.6 mph - N/A   Overcast
9:50 AM 6.8 °F -3.5 °F 1.4 °F 79% 30.11 in 10.0 mi NNW 5.8 mph - N/A   Overcast
10:10 AM 6.8 °F -3.5 °F 3.2 °F 85% 30.11 in 10.0 mi NNW 5.8 mph - N/A   Overcast
10:31 AM 8.6 °F -1.3 °F 1.4 °F 73% 30.12 in 10.0 mi NNW 5.8 mph - N/A   Overcast
10:50 AM 8.6 °F 2.0 °F 3.2 °F 79% 30.12 in 10.0 mi NW 3.5 mph - N/A   Mostly Cloudy
11:10 AM 8.6 °F 2.0 °F 3.2 °F 79% 30.12 in 10.0 mi NW 3.5 mph - N/A   Clear
11:31 AM 8.6 °F - 3.2 °F 79% 30.12 in 10.0 mi Calm Calm - N/A   Clear
11:50 AM 10.4 °F - 3.2 °F 73% 30.10 in 10.0 mi Calm Calm - N/A   Clear
12:10 PM 10.4 °F 4.0 °F 3.2 °F 73% 30.10 in 10.0 mi NNW 3.5 mph - N/A   Clear
12:30 PM 10.4 °F 2.2 °F 3.2 °F 73% 30.10 in 10.0 mi West 4.6 mph - N/A   Clear
12:50 PM 10.4 °F 0.8 °F 5.0 °F 79% 30.09 in 10.0 mi WNW 5.8 mph - N/A   Clear
1:10 PM 12.2 °F 0.7 °F 6.8 °F 79% 30.09 in 10.0 mi West 8.1 mph - N/A   Clear
1:30 PM 12.2 °F 2.9 °F 6.8 °F 79% 30.08 in 10.0 mi WNW 5.8 mph - N/A   Scattered Clouds
1:50 PM 12.2 °F 2.9 °F 6.8 °F 79% 30.07 in 10.0 mi WNW 5.8 mph - N/A   Clear
2:10 PM 12.2 °F 2.9 °F 6.8 °F 79% 30.07 in 10.0 mi WSW 5.8 mph - N/A   Clear
2:30 PM 14.0 °F 6.5 °F 6.8 °F 73% 30.06 in 10.0 mi West 4.6 mph - N/A   Clear
2:50 PM 14.0 °F 6.5 °F 6.8 °F 73% 30.04 in 10.0 mi SW 4.6 mph - N/A   Clear
3:10 PM 14.0 °F 5.1 °F 6.8 °F 73% 30.04 in 10.0 mi SW 5.8 mph - N/A   Clear
3:30 PM 14.0 °F 2.9 °F 6.8 °F 73% 30.03 in 10.0 mi SW 8.1 mph - N/A   Clear
3:50 PM 14.0 °F 5.1 °F 6.8 °F 73% 30.04 in 10.0 mi SW 5.8 mph - N/A   Clear
4:10 PM 14.0 °F 5.1 °F 8.6 °F 79% 30.03 in 10.0 mi SW 5.8 mph - N/A   Scattered Clouds
4:30 PM 15.8 °F 8.6 °F 6.8 °F 68% 30.02 in 10.0 mi SSW 4.6 mph - N/A   Overcast
4:50 PM 15.8 °F 8.6 °F 8.6 °F 73% 30.01 in 10.0 mi SSW 4.6 mph - N/A   Overcast
5:11 PM 15.8 °F 10.2 °F 8.6 °F 73% 30.01 in 10.0 mi SSW 3.5 mph - N/A   Overcast
5:30 PM 15.8 °F 6.1 °F 10.4 °F 79% 30.00 in 1.8 mi SSW 6.9 mph - N/A Snow Light Snow
5:50 PM 15.8 °F 7.2 °F 10.4 °F 79% 29.98 in 3.0 mi South 5.8 mph - N/A Snow Light Snow
6:11 PM 15.8 °F 8.6 °F 12.2 °F 86% 29.99 in 7.0 mi SSW 4.6 mph - N/A Snow Light Snow
6:30 PM 15.8 °F 7.2 °F 12.2 °F 86% 29.98 in 7.0 mi South 5.8 mph - N/A Snow Light Snow
6:50 PM 15.8 °F 6.1 °F 12.2 °F 86% 29.97 in 2.0 mi South 6.9 mph - N/A Snow Light Snow
7:11 PM 15.8 °F 7.2 °F 12.2 °F 86% 29.96 in 4.0 mi South 5.8 mph - N/A Snow Light Snow
7:30 PM 15.8 °F 6.1 °F 12.2 °F 86% 29.95 in 4.0 mi South 6.9 mph - N/A Snow Light Snow
7:50 PM 15.8 °F 6.1 °F 12.2 °F 86% 29.95 in 4.0 mi SSE 6.9 mph - N/A Snow Light Snow
8:11 PM 15.8 °F 5.1 °F 12.2 °F 86% 29.94 in 7.0 mi SSE 8.1 mph - N/A   Overcast
8:30 PM 15.8 °F 6.1 °F 14.0 °F 93% 29.93 in 4.0 mi South 6.9 mph - N/A Snow Light Snow
8:50 PM 15.8 °F 7.2 °F 14.0 °F 93% 29.92 in 5.0 mi South 5.8 mph - N/A Snow Light Snow
9:10 PM 15.8 °F 7.2 °F 14.0 °F 93% 29.92 in 4.0 mi South 5.8 mph - N/A Snow Light Snow
9:30 PM 15.8 °F 7.2 °F 15.8 °F 100% 29.91 in 5.0 mi South 5.8 mph - N/A Snow Light Snow
9:50 PM 15.8 °F 7.2 °F 15.8 °F 100% 29.91 in 10.0 mi South 5.8 mph - N/A   Overcast
10:10 PM 17.6 °F 12.3 °F 15.8 °F 93% 29.91 in 7.0 mi SSW 3.5 mph - N/A Snow Light Snow
10:30 PM 17.6 °F - 15.8 °F 93% 29.90 in 7.0 mi Calm Calm - N/A   Overcast
10:50 PM 17.6 °F - 17.6 °F 100% 29.91 in 10.0 mi Calm Calm - N/A   Overcast
11:10 PM 17.6 °F - 17.6 °F 100% 29.91 in 10.0 mi Calm Calm - N/A   Overcast
11:50 PM 21.2 °F 6.4 °F 21.2 °F 100% 29.91 in 5.0 mi WNW 18.4 mph 24.2 mph N/A   Overcast